Overview Statistics Trail Chart Weather Telemetry Raw packets
 

This is the latest recevied weather packets stored in our database for station/object KG5MMT-12. If no packets are shown the sender has not sent any weather packets the latest 10 day(s).

<< 7 8 9 10 11 12 13 >>
Time Temp. Humidity Pressure Rain* Wind** Luminosity Snow
1788637138 25.56° C 39% 0 hPa 0 mm - - -
1788636838 26.67° C 35% 0 hPa 0 mm - - -
1788636538 26.67° C 34% 0 hPa 0 mm - - -
1788636238 26.67° C 36% 0 hPa 0 mm - - -
1788635938 26.67° C 38% 0 hPa 0 mm - - -
1788635638 26.11° C 37% 0 hPa 0 mm - - -
1788635338 26.11° C 38% 0 hPa 0 mm - - -
1788635038 26.11° C 37% 0 hPa 0 mm - - -
1788634738 26.11° C 37% 0 hPa 0 mm - - -
1788634438 26.11° C 38% 0 hPa 0 mm - - -
1788634138 26.11° C 37% 0 hPa 0 mm - - -
1788633838 26.11° C 38% 0 hPa 0 mm - - -
1788633538 26.11° C 36% 0 hPa 0 mm - - -
1788633250 26.67° C 36% 0 hPa 0 mm - - -
1788632938 26.67° C 35% 0 hPa 0 mm - - -
1788632639 27.22° C 35% 0 hPa 0 mm - - -
1788632338 27.22° C 34% 0 hPa 0 mm - - -
1788632038 27.22° C 35% 0 hPa 0 mm - - -
1788631738 27.22° C 36% 0 hPa 0 mm - - -
1788631449 26.67° C 36% 0 hPa 0 mm - - -
1788631138 26.67° C 37% 0 hPa 0 mm - - -
1788630838 26.67° C 38% 0 hPa 0 mm - - -
1788630539 26.67° C 36% 0 hPa 0 mm - - -
1788630238 26.11° C 38% 0 hPa 0 mm - - -
1788629938 26.11° C 37% 0 hPa 0 mm - - -

* Rain latest hour (hover to see other rain measurements)
** Current wind speed in m/s (hover to see current wind gust speed)